Torna al catalogo

STARLINK-35925

AttivoComunicazioniVLEO
NORAD 66887·PAYLOAD·🇺🇸 United States

Lanciato Dec 4, 2025 da Vandenberg Space Force Base

Loading…

Prossimi Passaggi (prossime 24 ore)

TLE

AggiornatoSource: CelesTrak SupGP

Epoca: Sep 15, 2026, 03:14 UTC

1 66887C 25283K   26258.13520833 -.00070211  00000+0 -20743-2 0  2581
2 66887  53.1576 220.8766 0001334  90.4931   1.1848 15.34427624    13

Traccia STARLINK-35925 in tempo reale con AllMySat

Download on the App Store